Simultaneous Nadir Overpasses (SNOs) Predictions

Prediction of SNOs between NOAA-20 and LANDSAT-8 Satellite Orbit:

Table of predicted SNOs for the next 14.0 days since TLE Epoch: 2/26/2022
Index Date (NOAA-20) Time (NOAA-20) Lat,Lon (NOAA-20) SZA (NOAA-20 ) Date (LANDSAT-8) Time (LANDSAT-8) Lat,Lon (LANDSAT-8) SZA (LANDSAT-8 ) Distance(km) Time Diff (sec)
1 02/27/2022 22:49:11 -70.16, 13.86 101.73 02/27/2022 22:50:11 -70.16, 13.93 101.75 2.66 60
2 02/27/2022 23:39:54 70.00,-178.57 78.09 02/27/2022 23:39:39 70.00,-178.65 78.09 2.87 15
3 02/28/2022 00:30:27 -69.43, -10.41 102.53 02/28/2022 00:29:17 -69.45, -11.77 102.45 53.23 70
4 03/02/2022 15:06:08 -70.10, 129.72 102.82 03/02/2022 15:06:41 -70.09, 129.71 102.84 1.83 33
5 03/02/2022 15:56:52 69.99, -62.80 77.06 03/02/2022 15:56:08 69.98, -62.80 77.05 1.41 44
6 03/05/2022 06:32:26 70.36, 77.77 76.44 03/05/2022 06:33:37 70.28, 78.23 76.33 19.07 71
7 03/05/2022 07:23:04 -70.04,-114.42 103.91 03/05/2022 07:23:09 -70.06,-114.45 103.89 2.61 5
8 03/05/2022 08:13:48 69.94, 53.05 75.96 03/05/2022 08:12:36 69.95, 53.04 75.99 1.93 72
9 03/07/2022 22:49:20 70.15,-166.13 75.17 03/07/2022 22:50:08 70.14,-166.10 75.15 1.66 48
10 03/07/2022 23:40:02 -70.04, 1.35 104.96 03/07/2022 23:39:38 -70.03, 1.39 104.97 1.59 24
11 03/10/2022 14:15:50 -71.08, 140.80 104.88 03/10/2022 14:16:56 -70.97, 143.38 105.10 94.03 66
12 03/10/2022 15:06:17 70.10, -50.29 74.06 03/10/2022 15:06:37 70.09, -50.28 74.05 0.48 20
13 03/10/2022 15:56:59 -69.99, 117.19 106.07 03/10/2022 15:56:07 -69.99, 117.21 106.06 1.02 52



Historial Predications of SNOs between NOAA-20 and LANDSAT-8
